Location: Argonnex
(45.9500°N, 6.1333°E)
Time: 05:33:31
(UTC+00:00)

Cosmos 407 Rocket - Pass Details

Date: 28 January 2023
Orbit: 743 x 785 km, 74.0° (Epoch: 21 March)

Event Time Altitude Azimuth Distance (km) Brightness Sun altitude
Rises 17:38:53 0° 179° (S) 3,200 6.9 -11.3°
Reaches altitude 10° 17:41:21 10° 172° (S) 2,273 6.0 -11.7°
Maximum altitude 17:46:08 40° 103° (ESE) 1,095 3.9 -12.5°
Enters shadow 17:50:54 10° 35° (NE) 2,265 5.5 -13.3°
